STARLINK-34560, 64700

Orbit data source: Space-Track

STARLINK-34560, 64700 is a payload satellite owned by SpaceX/Seattle (US) in LEO that was launched on Sat, 28 Jun 2025 UTC via an FALCON 9 launch vehicle from the Air Force Western Test Range (AFWTR). Payload-class satellites include a variety of spacecraft equipped with specific instruments for various scientific and technological missions. These include communications satellites like Starlink; space stations such as the ISS; scientific satellites like the Hubble; Earth observation satellites from companies like Planet Labs, Umbra, and HawkEye 360; GPS; miniature CubeSats for education and research; and military/defense satellites.

Loading next visibility...
Identifier
64700, 2025-142E
Orbit
LEO
Country
Flag of USUS
Related business
Manufacturer
SpaceX/Seattle
Mission
Operational Commercial Communications
Bus & Motor
STARLINK V2MO, Unknown motor
Mass
575 kg wet, ~530 kg dry
Launch date (UTC)
2025-06-28 (1 year ago)
Launch vehicle
FALCON 9
Launch site
Air Force Western Test Range (AFWTR)
Object type
Payload
Rocket body
Debris
Shape & HBR
Box + 2 Pan, 17.7 m
Radar Cross Section
36.964 m², Large (>1 m²)

Expand to show TLE details & history
Last TLE update: 6 hours ago

TLE from 6 hours ago
0 STARLINK-34560
1 64700U 25142E   26207.59997603  .00002811  00000-0  24329-3 0  9991
2 64700  70.0031 324.3679 0003329 263.5126  96.5654 14.98333448 60240
Epoch: 2026-07-26T14:23Z
TLE epoch observation values (Epoch: 2026-07-26T14:23:57.928Z)
Latitude
-0.00001°
Longitude
164.08094°
Altitude
574.735 km
Speed
7.574 km/s
True Right ascension
21h 37m 28s
True Declination
0° 00' 00"
Sunlit
Object was in full shadow at epoch
Visualization orbit readout
Latitude
Unknown
Longitude
Unknown
Altitude
Unknown
Speed
Unknown
Apparent Right ascension
Unknown
Apparent Declination
Unknown
Sunlit
N/A
Visualization observer readout
Local Sidereal Time
09:50:28
Azimuth
Unknown
Elevation
Unknown
Doppler factor
Unknown
Orbital elements
Apogee altitude
572.306 km
Perigee altitude
567.68 km
Semi-major axis
6,948.13 km
Eccentricity
0.00033
Inclination
70.0031°
RAAN
324.3679°
Arg. of periapsis
263.5126°
True anomaly
96.6033°
Mean anomaly
96.5654°
Eccentric anomaly
96.58435°
Mean motion
3.7475 °/min
Orbital period
96.06 mins
BSTAR
0.00024329
Loading maneuver chart data...
Computing Atmospheric mass density...
Loading historical data...
Loading historical data...
Loading historical data...
Loading historical data...
Loading historical data...
Loading historical data...
Loading historical data...

Documentation

Showing up to 5 results
|